Погода в Томске

Хотите узнать прогноз погоды в Томске? Тогда Вам сюда: Погода в Томске

Поиск расширенной информации на нашем сайте:

Полезная информация:

Новости сайта



02.01.2020
Опубликован Долгосрочный прогноз погоды по городам России и ближнего зарубежья на январь 2020 года.
Карты: Прогноз на январь и февраль 2020 года, Сравнение прогнозируемой аномалии приземной температуры воздуха на январь 2020 года по разным моделям.




Погода в Томске - сегодня

Время (UTC), дата Ветер
(°,м/с) 
Видим.   Явления Облачность Т
(°С)
Тd
(°С)
f(%) Тe
(°С)
Pmin
(гПа)
dP
(гПа)
Po
(мм)
O2
(г/м3)
Тmin Tmax R s Состояние
почвы
15 02.07.20 тихо ()   20000 м  гроза без осадков{ливн. осадки} [макс. диам. градин 8 мм]  10/5 600 м кучево-дожд., средняя 
[Cb cap|Ac und]
+19.8 +19.1 96 +37  1002.4  -0.1  740  273           
18 02.07.20 тихо ()   20000 м  {гроза, ливн. осадки}  10/0 средняя 
[Ac und]
+18.7 +18.1 96 +34  1003.4  0.9  740  275           
21 02.07.20 тихо ()   20000 м    10/3 600 м средняя 
[Sc|Ac und]
+18 +17.4 96 +32  1003.2  -0.2  740  276           
00 03.07.20 230 (ЮЗ) 10 км  дымка  10/10 210 м 
[Sc]
+18 +17.4 96 +33  1004  0.7  741  276  +17.4    51    влажная 
03 03.07.20 тихо ()   20000 м    10/10 240 м 
[St]
+20 +18.9 93 +37  1004.6  0.8  741  274           
06 03.07.20 тихо ()   20000 м    8/8 800 м кучево-дожд. 
[Cb cap]
+24.4 +17.4 65 +38  1004.4  741  270           
09 03.07.20 тихо ()   20000 м  слаб. ливневой дождь  8/8 300 м кучево-дожд. 
[Cb cap]
+22.2 +20.1 88 +41  1005.3  0.8  742  272           
12 03.07.20 тихо ()   20000 м  {ливн. осадки}  6/6 800 м кучево-дожд., верхняя 
[Cb cap|Ci fib]
+26 +16 54 +37  1004.3  -0.8  741  269    +26.7  0.0     
15 03.07.20 тихо ()   20000 м    6/0 средняя, верхняя 
[Ac trans|Ci fib]
+21.2 +18.2 83 +36  1005.2  0.6  742  273           
18 03.07.20 тихо ()   20000 м    6/0 средняя 
[Ac trans]
+18.6 +17.3 92 +32  1005.2  -0.2  742  276           
21 03.07.20 тихо ()   20000 м    8/0 верхняя 
[Ci fib]
+16.7 +16.1 96 +28  1005.1  -0.2  742  278           
00 04.07.20 тихо ()   0500 м  туман  ?/? 60 
+17.8 +17.2 96 +31  1005.6  0.6  742  277  +16.6        влажная 
03 04.07.20 тихо ()   20000 м  {туман}  3/3 600 м 
[Sc]
+22.9 +17.8 73 +37  1005.5  0.3  742  272           
06 04.07.20 210 (ЮЗ) 20000 м  {туман}  10/8 570 м верхняя 
[Cu med, cong|Ci fib]
+26.8 +17.5 57 +40  1004.6  -0.7  742  268           
09 04.07.20 тихо () {11}  20000 м  гроза без осадков{ливн. осадки}  9/8 600 м кучево-дожд. 
[Cb cap]
+19.8 +19 95 +37  1005.5  0.5  742  274           
12 04.07.20 тихо ()   20000 м  {гроза, ливн. осадки}  8/1 600 м верхняя 
[Cu med, cong|Ci]
+24.4 +17.8 67 +39  1005  -0.3  742  270    +27     
15 04.07.20 тихо ()   20000 м    3/0 средняя, верхняя 
[Ac trans|Ci sp]
+19.3 +18.1 93 +34  1006  0.7  742  275           
18 04.07.20 тихо ()   20000 м    3/0 верхняя 
[Ci fib]
+18.5 +17.2 92 +32  1005.5  -0.6  742  276           
21 04.07.20 тихо ()   20000 м    9/0 средняя, верхняя 
[Ac trans|Ci sp]
+18.6 +17.5 93 +32  1005.7  0.2  742  276           
00 05.07.20 тихо ()   20000 м    9/0 средняя, верхняя 
[Ac trans|Ci sp]
+18.6 +17 90 +31  1005.9  0.2  742  276  +18.5        влажная 
03 05.07.20 тихо ()   20000 м  слаб. ливневой дождь  10/8 600 м кучево-дожд., средняя 
[Cb cap|Ac und]
+17.1 +15.9 93 +28  1006.6  0.7  743  278           
06 05.07.20 260 (З) 20000 м  {ливн. осадки}  10/3 1000 м верхняя 
[Sc|Cs]
+21 +16.5 75 +33  1005.8  -0.6  742  274           
09 05.07.20 320 (СЗ) 20000 м    8/3 1000 м средняя, верхняя 
[Cu med, cong|Ac trans|Ci fib]
+24.5 +15 55 +33  1004.2  -1.4  741  271           
12 05.07.20 тихо ()   20000 м    8/3 1000 м средняя, верхняя 
[Cu med, cong|Ac As|Ci fib]
+21 +16.7 76 +33  1004.6  0.3  742  274    +25     
15 05.07.20 тихо ()   20000 м    10/0 средняя, верхняя 
[Ac As|Ci fib]
+18.6 +15.7 83 +29  1004.6  -0.2  741  276           
Время (UTC), дата Ветер
(°,м/с) 
Видим.   Явления Облачность Т
(°С)
Тd
(°С)
f(%) Тe
(°С)
Pmin
(гПа)
dP
(гПа)
Po
(мм)
O2
(г/м3)
Тmin Tmax R s Состояние
почвы

Для получения пояснительной информации подведите курсор к названию столбца.

ПОГОДА в Томске - архив

Всё, что Вы хотите узнать о погоде в Томске - удобно и подробно!

Выберите нужную дату (начиная с 1 января 2019* года) и нажмите кнопку "Найти".
Будут отображены архивные сводки погоды по пункту Томск, начиная с указанной даты.


Отображать данные в формате CSV (для использования в таблицах Excel)


Внимание! Наш архив погоды предназначен исключительно для личного некоммерческого использования в познавательных целях. Если Вам необходимы официальные справки о состоянии погоды (для производственных, юридических, коммерческих и т.п. целей), обращайтесь в органы Росгидромета.

*Примечание: данная дата относится к архиву по метеостанциям СССР (Россия, СНГ, Балтия).
Архив по метеостанциям Зарубежной Европы и Азии (кроме Китая) хранится 10 дней, по другим регионам земного шара (Китай, Африка, Америка, Австралия, Океания) - 1 день.

Томск - район местоположения метеостанции


Название, широта, долгота, высота метеостанции:
Томск 56.5°ш. 84.9°д. 139 м над ур. моря [Российская Федерация]

Дополнительная информация

В oтличие oт бoльшинства пoгoдных сайтoв мы публикуем пoдрoбную метеoинфoрмацию в детальнoм прoфессиoнальнoм фoрмате.

Характеристики температуры и влажнoсти вoздуха измеряются на высoте 2 м в тени вдали oт зданий и деревьев.
Скoрoсть ветра измеряется на высoте 10 м (на урoвне рoста челoвека скoрoсть ветра ниже в 1.5-2 раза). Если метеoстанция нахoдится в гoрoде или в лесу, тo скoрoсть ветра занижена на 2-4 м/с пo сравнению с oткрытым местoм. Скoрoсть ветра над акватoриями крупных рек и oзёр, а также на вершинах хoлмoв на 2-5 м/с выше, чем в oбычных услoвиях.
Атмoсфернoе давление в разных тoчках местнoсти мoжет значительнo oтличаться oт давления на метеoстанции, в зависимoсти oт услoвий рельефа (при пoдъёме на 10 м давление пoнижается примернo на 1 мм рт.ст.).